Wind_Speed
93 91 85 86 86 85 86 93 94 87 83 86 83 79 79 81 75 68 66 64 62 61 55 53 53 51 53 51 45 42 44 41 46 42 40 42 40 38 44 45 47 47 46 45
100 90 93 93 89 87 86 86 92 88 86 86 87 87 86 86 77 72 70 66 66 64 54 57 58 51 57 48 44 41 45 48 42 42 43 43 42 41 44 48 47 47 52 49
105 101 99 96 94 94 90 89 90 94 96 91 91 91 86 87 82 78 77 70 68 66 63 61 60 58 56 58 50 49 52 54 48 43 44 45 44 46 48 51 51 51 53 57
112 107 104 101 96 95 95 95 96 94 101 99 92 85 91 91 89 83 78 73 71 71 62 65 67 64 60 58 58 56 56 56 50 45 46 45 47 52 52 53 55 58 58 62
114 111 107 104 100 104 102 100 101 100 100 103 108 89 83 93 89 82 79 75 75 72 68 66 68 65 65 62 54 56 56 57 53 55 55 51 54 56 57 61 63 60 63 65
119 116 112 104 106 107 108 107 106 105 106 107 96 101 78 92 88 88 84 79 74 74 72 68 65 68 66 67 64 64 66 65 62 62 59 55 54 55 65 70 71 72 70 70
121 116 113 111 111 108 107 105 109 109 107 96 95 105 84 86 92 93 88 81 78 79 74 71 67 71 70 72 73 74 69 68 69 69 67 62 64 65 70 73 74 72 73 77
123 123 120 117 115 113 115 115 113 113 110 101 102 106 89 92 93 93 91 85 80 80 78 75 75 77 77 80 80 71 71 76 78 75 73 73 70 73 74 71 74 74 80 85
121 124 120 118 123 124 121 122 118 121 117 109 105 99 93 97 98 95 98 93 89 87 85 85 83 84 78 83 82 77 75 79 79 77 76 76 77 76 75 73 77 83 85 87
122 127 127 127 128 129 128 127 128 124 121 114 104 99 94 93 94 99 95 100 98 96 91 93 89 89 86 86 85 79 76 80 81 80 79 80 80 81 78 81 84 87 88 89
122 125 124 125 131 129 127 128 127 124 122 117 107 102 93 93 102 104 99 98 105 104 104 99 97 91 87 87 88 84 85 86 86 87 85 85 86 86 88 93 95 96 92 91
120 122 121 120 125 128 128 129 130 131 123 117 111 102 93 91 103 102 107 97 100 106 107 105 103 93 91 92 94 90 94 91 89 90 90 92 95 93 96 100 100 99 97 98
110 116 116 119 121 122 124 123 122 121 118 116 111 94 92 94 98 104 106 112 101 101 105 105 103 98 100 99 98 96 98 98 94 93 95 98 100 98 98 103 104 105 102 103
105 107 108 105 107 115 116 114 114 114 113 106 107 91 96 97 98 105 111 112 116 104 103 104 106 105 108 104 101 100 101 102 98 98 101 105 103 105 104 106 107 104 105 109
91 89 89 91 97 103 108 108 109 113 110 109 97 98 95 99 105 107 109 110 112 114 107 105 108 112 108 106 103 104 106 105 104 103 106 109 110 109 110 110 108 106 108 111
71 70 75 81 86 87 93 96 97 102 102 100 96 97 97 101 107 108 104 104 106 108 109 107 108 107 106 106 107 107 108 109 108 110 112 113 111 114 116 114 112 111 112 115
63 64 69 69 72 76 81 74 82 88 90 91 96 91 101 105 109 109 110 111 110 107 107 108 109 110 110 113 116 116 115 114 113 111 112 114 114 114 115 116 115 115 118 121
63 66 67 69 70 74 62 74 78 83 85 86 84 87 98 104 108 110 111 109 103 102 107 109 110 109 110 111 112 116 119 120 117 116 114 112 112 113 114 116 116 119 120 121
67 71 69 70 69 64 62 70 70 72 71 68 65 78 93 101 108 108 103 101 100 102 103 104 109 112 113 114 115 118 118 119 119 118 118 118 120 118 120 121 120 120 121 124
70 69 69 69 68 62 57 64 66 68 48 54 56 63 76 91 106 94 95 99 100 99 103 103 103 104 108 112 117 118 118 119 120 121 123 122 120 121 121 121 122 121 123 126
73 75 73 69 66 60 60 56 62 58 43 56 61 66 76 87 91 93 98 100 100 95 98 102 102 100 101 104 106 108 110 112 116 119 119 120 121 122 121 120 120 119 121 124
63 75 71 69 64 62 62 62 62 58 62 66 63 68 72 81 89 92 94 96 97 94 95 94 96 97 99 99 100 102 104 107 110 111 112 114 114 113 112 113 114 117 119 120
66 65 70 72 62 64 68 66 69 70 71 71 71 70 76 76 76 78 80 84 87 89 91 95 100 98 99 100 100 100 102 104 104 104 105 108 110 112 114 116 116 116 119 123
70 70 70 69 65 63 69 72 71 71 72 72 70 71 72 73 77 75 75 80 84 84 84 86 89 101 111 109 107 106 108 108 108 108 109 111 113 115 117 119 118 120 123 121
67 66 63 64 69 69 69 72 73 75 74 73 72 70 70 73 76 77 79 80 83 85 86 86 87 90 94 98 101 104 108 109 109 111 111 110 110 111 113 113 114 116 120 120
65 64 65 64 69 70 70 70 71 71 75 75 74 75 73 72 74 76 78 79 81 84 86 87 88 90 90 92 95 97 98 100 103 105 107 108 109 109 110 113 117 118 116 116
Wind_Direction
243 243 243 244 243 240 237 238 240 242 239 235 240 236 242 247 250 248 247 251 253 253 256 254 255 266 271 270 263 277 275 276 281 286 290 286 286 290 301 308 311 312 314 318
243 243 243 244 244 244 240 238 238 241 241 232 235 239 241 243 245 246 247 252 255 257 254 256 255 267 269 256 268 264 274 280 277 282 292 286 284 283 291 299 303 305 308 309
242 243 244 244 244 245 243 241 238 238 241 237 235 239 242 244 247 245 251 250 253 252 260 254 252 264 262 249 253 267 275 276 272 275 285 286 280 283 287 296 301 301 308 307
242 242 243 244 246 248 249 244 245 239 240 242 234 235 240 245 247 248 245 253 250 253 255 257 255 260 252 250 253 263 278 270 270 271 279 283 284 282 286 290 296 300 301 309
243 243 245 247 248 246 247 247 246 243 238 239 241 233 235 243 248 247 247 248 248 250 254 252 252 255 251 250 258 263 272 265 265 271 277 280 282 281 283 291 293 296 301 304
243 245 245 245 246 247 248 248 246 244 240 238 241 241 229 238 240 243 245 242 241 248 252 249 252 249 249 252 252 260 267 271 263 266 271 277 280 279 285 288 287 292 294 299
245 246 246 248 249 248 249 252 252 248 244 241 241 243 232 231 238 242 243 238 239 244 251 250 249 248 251 252 259 263 267 270 260 265 269 271 276 281 285 289 287 289 289 293
244 246 247 247 247 248 249 248 249 250 245 245 239 241 238 228 232 238 240 238 240 240 248 249 247 250 254 255 260 260 265 264 265 266 267 272 274 281 283 284 285 286 290 291
242 245 244 245 245 247 247 248 249 248 248 245 242 242 242 238 233 235 239 238 239 237 246 245 247 250 254 250 256 257 262 263 262 266 268 272 275 279 281 280 283 287 291 291
239 241 242 242 242 244 246 247 248 248 249 248 243 245 245 244 236 232 239 237 239 237 241 242 246 250 254 254 254 257 260 258 260 263 268 272 275 278 278 279 285 288 288 290
238 239 239 241 244 244 245 247 249 250 249 249 246 243 244 244 241 233 236 236 236 237 243 242 245 250 251 252 253 257 257 256 260 264 269 272 275 277 280 281 282 288 286 288
238 238 238 240 241 243 245 248 249 248 247 247 247 244 241 240 242 239 235 236 237 239 242 246 249 250 249 250 250 254 255 257 259 263 266 269 272 275 277 279 281 286 285 284
240 241 241 242 241 243 246 248 250 251 250 248 247 243 238 236 236 239 235 233 237 239 243 243 246 248 244 248 248 252 252 256 258 261 265 266 269 274 273 277 280 283 285 286
240 242 243 243 242 242 244 245 245 246 246 245 243 235 232 231 230 235 238 236 237 240 241 243 242 244 246 248 249 250 251 255 259 261 264 266 270 274 276 277 279 282 285 284
242 244 247 245 243 243 243 244 243 244 244 242 239 233 227 225 229 232 236 237 238 239 240 240 242 244 248 249 248 250 252 255 259 262 265 267 269 273 276 278 281 282 280 282
242 243 244 244 245 245 244 242 242 244 245 243 236 232 224 222 228 231 232 233 235 237 236 237 241 244 246 247 249 250 252 255 260 263 264 267 270 272 276 275 276 278 280 281
233 236 238 239 238 237 237 238 239 240 240 240 236 232 227 223 225 230 232 231 232 235 237 238 240 244 246 248 249 251 253 257 259 260 263 266 269 272 272 273 277 278 278 279
233 235 235 234 232 233 232 233 236 238 239 239 236 233 233 228 226 231 232 234 235 237 237 239 239 242 245 248 251 253 254 256 257 259 261 264 265 266 268 271 273 274 277 279
228 230 231 235 234 232 231 229 229 231 231 233 233 234 234 233 231 233 237 238 239 237 238 239 241 243 244 246 248 250 253 254 256 258 260 262 265 267 269 270 273 274 275 276
225 230 232 230 232 230 217 228 231 234 224 239 232 231 235 238 236 239 245 244 243 240 241 242 244 247 250 252 253 255 257 259 260 261 262 264 266 267 268 271 272 274 275 277
228 229 235 233 235 224 218 227 231 236 223 239 238 231 235 238 239 238 243 245 245 245 244 245 246 248 250 253 256 258 260 262 263 265 266 266 266 267 270 272 274 276 277 279
238 233 237 237 235 226 221 220 233 231 231 227 233 235 233 236 238 240 243 246 247 246 243 244 245 248 250 253 255 257 259 260 262 263 265 267 269 271 272 273 275 277 278 280
236 237 237 239 238 229 226 224 228 234 234 233 231 234 235 234 238 239 241 244 248 250 249 246 244 247 250 252 254 256 259 260 262 265 267 269 271 272 274 275 276 277 278 279
235 238 239 238 235 240 235 232 233 237 239 242 242 239 239 241 238 237 240 242 245 248 250 250 250 249 249 253 257 259 261 262 264 266 268 269 271 272 273 275 277 277 279 281
239 239 240 237 236 240 238 239 243 244 243 244 245 245 243 242 243 244 242 242 244 246 248 249 251 252 253 254 255 257 259 262 264 265 267 268 269 271 272 274 276 276 279 281
239 240 241 241 241 242 243 243 246 248 245 247 248 248 247 244 244 244 245 247 247 248 250 252 252 253 254 256 257 259 260 261 262 264 266 267 269 271 273 274 276 278 280 280
Height
10665 10677 10693 10693 10700 10707 10717 10726 10734 10741 10743 10751 10758 10769 10772 10777 10790 10799 10806 10812 10817 10820 10830 10834 10836 10838 10840 10840 10839 10841 10841 10840 10838 10839 10838 10835 10834 10833 10832 10831 10827 10825 10823 10820
10648 10671 10669 10674 10685 10693 10705 10712 10720 10724 10724 10737 10745 10753 10758 10762 10778 10783 10794 10803 10808 10812 10822 10824 10826 10829 10830 10832 10832 10831 10832 10833 10831 10830 10830 10828 10828 10828 10826 10824 10822 10819 10816 10812
10632 10645 10650 10657 10670 10679 10689 10694 10697 10706 10707 10716 10731 10742 10748 10754 10764 10773 10783 10793 10798 10803 10811 10814 10816 10818 10820 10821 10822 10824 10825 10824 10823 10822 10821 10820 10819 10818 10816 10815 10812 10809 10806 10804
10610 10624 10632 10644 10656 10663 10668 10676 10677 10685 10692 10701 10715 10737 10739 10744 10753 10765 10775 10781 10785 10791 10797 10802 10802 10805 10807 10808 10813 10814 10815 10815 10813 10811 10811 10811 10810 10808 10807 10803 10801 10798 10795 10792
10598 10601 10613 10627 10636 10636 10647 10649 10654 10667 10676 10685 10700 10722 10739 10733 10745 10758 10759 10766 10771 10776 10782 10789 10791 10792 10794 10797 10799 10802 10803 10804 10802 10800 10799 10799 10799 10798 10797 10793 10790 10787 10785 10782
10571 10584 10601 10617 10615 10619 10622 10628 10637 10645 10654 10667 10695 10696 10731 10726 10734 10732 10742 10750 10757 10760 10766 10774 10779 10780 10780 10783 10786 10789 10792 10793 10792 10790 10788 10788 10787 10787 10786 10783 10780 10778 10775 10771
10558 10571 10584 10593 10596 10603 10609 10615 10615 10626 10637 10672 10673 10665 10727 10712 10709 10716 10724 10734 10741 10746 10753 10761 10767 10767 10767 10769 10773 10775 10777 10778 10780 10779 10777 10777 10776 10777 10774 10770 10768 10766 10764 10759
10536 10549 10563 10575 10578 10582 10580 10583 10596 10604 10618 10642 10648 10652 10697 10699 10694 10700 10711 10719 10726 10732 10737 10745 10748 10750 10753 10755 10757 10759 10762 10764 10764 10765 10764 10764 10764 10764 10762 10758 10755 10753 10749 10745
10515 10526 10537 10544 10551 10551 10560 10560 10582 10578 10593 10613 10630 10653 10665 10679 10686 10686 10692 10700 10709 10716 10718 10724 10727 10731 10737 10740 10741 10743 10746 10747 10748 10748 10749 10748 10749 10750 10747 10744 10741 10739 10735 10729
10486 10493 10505 10508 10515 10523 10535 10547 10546 10563 10575 10594 10620 10636 10649 10657 10671 10668 10673 10683 10688 10693 10697 10702 10707 10711 10718 10724 10728 10730 10730 10731 10730 10731 10731 10731 10732 10733 10731 10728 10725 10722 10717 10713
10457 10467 10478 10481 10494 10509 10514 10519 10527 10541 10553 10571 10596 10617 10633 10635 10643 10651 10651 10657 10667 10671 10674 10680 10686 10694 10702 10707 10710 10713 10714 10714 10715 10715 10715 10715 10713 10713 10711 10708 10704 10702 10698 10694
10434 10440 10448 10464 10465 10474 10483 10495 10504 10512 10541 10552 10563 10593 10610 10612 10618 10631 10633 10638 10643 10649 10654 10661 10670 10679 10686 10689 10690 10692 10696 10698 10699 10701 10702 10701 10698 10695 10692 10689 10687 10684 10680 10675
10418 10417 10428 10438 10446 10456 10465 10482 10489 10496 10508 10522 10542 10584 10584 10587 10591 10602 10606 10612 10617 10625 10634 10642 10651 10660 10661 10665 10670 10673 10677 10680 10682 10683 10685 10682 10680 10678 10675 10671 10668 10664 10661 10657
10388 10395 10406 10424 10438 10436 10440 10452 10459 10464 10473 10504 10515 10553 10560 10563 10570 10571 10576 10590 10599 10605 10615 10623 10631 10636 10640 10646 10651 10653 10658 10662 10664 10663 10663 10663 10662 10658 10655 10651 10648 10646 10642 10637
10375 10390 10399 10407 10413 10416 10425 10432 10437 10438 10455 10462 10510 10514 10534 10541 10539 10545 10555 10567 10576 10585 10592 10600 10608 10615 10623 10628 10632 10635 10638 10641 10644 10644 10644 10643 10640 10638 10635 10631 10629 10627 10621 10616
10361 10373 10378 10384 10390 10396 10399 10409 10416 10426 10445 10459 10487 10492 10507 10515 10517 10522 10538 10543 10551 10559 10568 10579 10588 10598 10604 10609 10611 10614 10617 10621 10625 10625 10622 10621 10619 10615 10612 10610 10606 10604 10601 10596
10344 10355 10360 10369 10370 10374 10377 10406 10403 10413 10423 10442 10455 10481 10478 10488 10495 10505 10511 10515 10525 10538 10553 10564 10571 10577 10582 10585 10588 10594 10597 10601 10602 10601 10600 10599 10595 10592 10591 10589 10587 10585 10579 10573
10336 10343 10346 10349 10352 10354 10395 10389 10395 10402 10414 10422 10441 10457 10463 10473 10476 10479 10490 10504 10519 10527 10533 10538 10542 10546 10550 10556 10563 10569 10575 10578 10578 10576 10575 10574 10570 10567 10568 10569 10564 10560 10557 10552
10328 10331 10336 10339 10347 10365 10379 10384 10384 10389 10404 10411 10427 10434 10440 10447 10456 10466 10481 10492 10497 10500 10505 10510 10514 10520 10526 10534 10539 10543 10549 10551 10551 10549 10547 10547 10551 10550 10549 10544 10539 10538 10534 10528
10317 10321 10322 10332 10339 10356 10378 10371 10371 10376 10409 10397 10409 10418 10425 10429 10438 10467 10462 10465 10473 10480 10486 10492 10498 10509 10516 10520 10521 10527 10531 10531 10531 10527 10526 10528 10530 10528 10525 10521 10516 10512 10507 10504
10304 10308 10315 10323 10332 10353 10359 10360 10359 10372 10401 10384 10388 10398 10404 10414 10428 10431 10432 10441 10453 10464 10471 10478 10485 10491 10495 10500 10503 10506 10507 10510 10507 10506 10509 10508 10506 10503 10501 10496 10491 10486 10482 10478
10293 10297 10308 10315 10329 10342 10347 10348 10352 10364 10362 10366 10371 10379 10388 10396 10408 10415 10420 10422 10432 10446 10454 10460 10466 10472 10475 10477 10481 10484 10484 10481 10479 10481 10484 10483 10481 10478 10475 10469 10465 10461 10456 10451
10283 10294 10302 10309 10324 10329 10330 10335 10338 10341 10345 10350 10358 10364 10371 10381 10390 10398 10406 10411 10417 10426 10435 10442 10446 10450 10453 10454 10457 10460 10459 10455 10457 10460 10459 10458 10456 10451 10447 10444 10439 10434 10429 10423
10270 10280 10286 10298 10311 10314 10320 10324 10327 10331 10334 10339 10348 10356 10362 10367 10375 10383 10389 10395 10400 10406 10412 10419 10424 10428 10430 10429 10432 10434 10432 10433 10437 10437 10434 10431 10428 10424 10419 10416 10412 10407 10402 10397
10259 10265 10276 10284 10295 10298 10304 10308 10310 10316 10323 10328 10334 10341 10349 10355 10360 10365 10372 10378 10382 10386 10391 10396 10399 10403 10406 10408 10411 10410 10410 10411 10411 10408 10406 10404 10400 10395 10392 10389 10386 10382 10379 10373
10250 10257 10259 10271 10273 10279 10286 10291 10298 10304 10310 10316 10321 10325 10330 10337 10343 10348 10353 10357 10362 10366 10369 10372 10375 10379 10381 10384 10385 10384 10384 10384 10383 10381 10380 10377 10374 10371 10367 10365 10362 10358 10351 10345